[[{"header":{"parameterUnit":"m.s-1","parameterCategory":1,"la1":30.2991,"la2":30.254,"lo1":-89.0895,"lo2":-89.0444,"dy":0.0017,"dx":0.0017,"nx":28,"ny":28,"refTime":"2025-03-25T21:00:00:Z","depth":0,"parameterNumber":2,"parameterNumberName":"U-component_of_WINDS"},"data":[0,0,0,0,0,0,0,0,0,0,0,0,0,0,0,0,0,0,0,0,0,0,0,0,0,0,0,0,0,0,0,0,0,0,0,0,0,0,0,0,0,0,0,0,0,0,0,0,0,0,0,0,0,0,0,0,0,0,0.1179,0.118,0,0.1316,0.1317,0.1319,0.1364,0.1363,0.1362,0.1362,0.1507,0.1511,0.1516,0,0,0,0,0,0,0,0,0,0,0,0,0,0.0959,0.0963,0.1179,0.118,0.1182,0.1316,0.1318,0.1319,0.1364,0.1363,0.1362,0.1362,0.1505,0.1511,0.1516,0,0,0,0,0,0,0,0,0,0,0,0,0,0.1071,0.0964,0.1178,0.122,0.1225,0.1315,0.1318,0.132,0.1364,0.1363,0.1362,0.1361,0.1504,0.151,0.1517,0.1576,0,0,0.1537,0.154,0,0,0,0,0,0,0,0,0.1065,0.1079,0.1212,0.1218,0.1223,0.1322,0.1293,0.1406,0.1364,0.1311,0.1362,0.1361,0.1446,0.1458,0.1486,0.1583,0.1589,0.1538,0.1542,0.1545,0.1546,0,0,0,0,0,0,0,0.1057,0.1073,0.1233,0.1214,0.1221,0.1233,0.1248,0.1315,0.1383,0.1316,0.132,0.1335,0.1449,0.1479,0.1489,0.1592,0.1538,0.1543,0.1548,0.155,0.1745,0.1746,0,0,0,0,0,0,0.1041,0.1067,0.1229,0.1237,0.114,0.1238,0.1255,0.1291,0.1382,0.1395,0.1336,0.1336,0.1468,0.1481,0.1495,0.1571,0.1545,0.1551,0.1555,0.1744,0.1745,0.1747,0,0,0,0,0,0,0.1036,0.1055,0.1223,0.1153,0.1175,0.1243,0.1283,0.1294,0.1324,0.1397,0.1409,0.1353,0.1468,0.1485,0.1555,0.1576,0.1554,0.156,0.1742,0.1744,0.1746,0.1723,0,0,0,0,0,0,0.103,0.1053,0.1076,0.1153,0.1179,0.1281,0.1285,0.1298,0.1335,0.1337,0.1417,0.1429,0.1469,0.1545,0.1562,0.1585,0.1565,0.1741,0.1743,0.1745,0.1722,0.1723,0.1725,0,0,0,0,0,0.1022,0.1065,0.1077,0.1096,0.1208,0.1282,0.1297,0.134,0.1336,0.136,0.1407,0.1427,0.1571,0.1552,0.1571,0.1597,0.174,0.1743,0.1745,0.1721,0.1723,0.1725,0,0,0,0,0,0,0.0991,0.1076,0.109,0.1159,0.1212,0.1289,0.1321,0.134,0.1397,0.1397,0.145,0.1467,0.1534,0.1572,0.155,0.1659,0.1656,0.1663,0.1632,0.1634,0.1635,0.1625,0.1571,0,0,0,0,0,0.0991,0.1042,0.1115,0.1169,0.1195,0.1253,0.1286,0.1315,0.1373,0.1396,0.1448,0.1505,0.1563,0.1601,0.1658,0.1727,0.1746,0.1754,0.1755,0.1756,0.1762,0.1801,0.1806,0.1755,0.1755,0.1755,0,0,0.0994,0.1047,0.1077,0.1164,0.1209,0.1262,0.1272,0.1328,0.1368,0.1405,0.1474,0.1514,0.1581,0.1651,0.1684,0.1685,0.1779,0.176,0.176,0.1765,0.1804,0.1809,0.1813,0.1757,0.1757,0.1757,0,0,0.1026,0.1071,0.1121,0.1165,0.1232,0.127,0.1282,0.1355,0.1382,0.1452,0.1481,0.153,0.1629,0.1676,0.1712,0.176,0.1781,0.1778,0.1786,0.1824,0.1828,0.1831,0.1849,0.1855,0.1783,0.1783,0.1783,0,0.1022,0.1101,0.1144,0.1198,0.1236,0.127,0.1322,0.1363,0.1446,0.1472,0.1471,0.1595,0.1643,0.1724,0.1735,0.1764,0.1779,0.177,0.1823,0.1828,0.1832,0.1849,0.1856,0.1782,0.1782,0.1782,0.1782,0,0.1093,0.1147,0.118,0.1257,0.1298,0.1351,0.1402,0.1439,0.1464,0.1502,0.1573,0.1631,0.17,0.1721,0.1747,0.1806,0.1804,0.1813,0.1811,0.1835,0.1852,0.1859,0.1781,0.1781,0.1781,0.1782,0,0,0.111,0.1209,0.1221,0.1256,0.1332,0.1376,0.1429,0.1496,0.1527,0.1582,0.163,0.1712,0.1719,0.1761,0.1792,0.1825,0.1859,0.1829,0.1831,0.1833,0.1929,0.1923,0.193,0.1873,0.1874,0.1875,0.1924,0,0.1153,0.1249,0.1289,0.1367,0.1419,0.1452,0.1499,0.1551,0.1588,0.1638,0.168,0.1737,0.1742,0.1768,0.1802,0.1848,0.1879,0.1845,0.1919,0.1921,0.1902,0.1939,0.1933,0.1976,0.1931,0.1932,0.1933,0,0.1215,0.127,0.1353,0.1422,0.1445,0.1486,0.155,0.1597,0.1657,0.1682,0.1727,0.1755,0.1814,0.1807,0.189,0.1865,0.1898,0.1925,0.1928,0.1937,0.1929,0.195,0.1991,0.1997,0.1944,0.1943,0.1942,0,0.122,0.1314,0.1376,0.1405,0.1487,0.1516,0.1551,0.161,0.1647,0.1703,0.1728,0.1791,0.1826,0.1874,0.1919,0.191,0.1997,0.1994,0.202,0.2019,0.2039,0.2037,0.2085,0.2057,0.2057,0.2057,0.2057,0,0.1264,0.1314,0.1379,0.1418,0.1474,0.152,0.1575,0.1613,0.1665,0.1712,0.1744,0.1788,0.1844,0.1895,0.1931,0.1994,0.2009,0.2032,0.2041,0.2029,0.2026,0.2052,0.2051,0.2059,0.2059,0.2058,0.2058,0,0.128,0.1325,0.1395,0.1466,0.1485,0.1524,0.1586,0.1624,0.1662,0.1721,0.1738,0.1798,0.1859,0.1908,0.1989,0.2013,0.208,0.2089,0.2059,0.2064,0.2087,0.2085,0.2155,0.2167,0.213,0.213,0.213,0,0.1305,0.1344,0.1418,0.1451,0.1486,0.1539,0.1577,0.1623,0.1661,0.1731,0.1762,0.1825,0.1878,0.1976,0.2027,0.2089,0.2102,0.2122,0.2111,0.2098,0.2103,0.21,0.2105,0.2123,0.2123,0.2124,0.2124,0,0.1345,0.1366,0.1418,0.1478,0.1521,0.1571,0.1622,0.1648,0.1703,0.1744,0.1807,0.1848,0.1929,0.1992,0.206,0.2098,0.2121,0.2126,0.2136,0.2125,0.2106,0.2117,0.2063,0.2125,0.2125,0.2125,0.2125,0.2125,0.1367,0.1403,0.1461,0.1518,0.156,0.1607,0.1647,0.1689,0.1741,0.181,0.1834,0.1899,0.1958,0.205,0.2088,0.214,0.2142,0.2155,0.2159,0.2162,0.2161,0.2096,0.2152,0.2153,0.2153,0.2153,0.2153,0,0.1409,0.1448,0.15,0.1569,0.1614,0.1629,0.1686,0.1723,0.1778,0.1831,0.1882,0.1954,0.2015,0.207,0.2134,0.2165,0.2177,0.2181,0.2179,0.2188,0.2155,0.2141,0.217,0.217,0.217,0.217,0.217,0.217,0.1437,0.1498,0.1525,0.1608,0.1647,0.1709,0.174,0.1784,0.1825,0.1904,0.1954,0.1989,0.2043,0.2111,0.2168,0.2183,0.2205,0.2206,0.2224,0.2193,0.219,0.2188,0.2175,0.221,0.221,0.2252,0.2253,0.2253]},{"header":{"parameterUnit":"m.s-1","parameterCategory":1,"la1":30.2991,"la2":30.254,"lo1":-89.0895,"lo2":-89.0444,"dy":0.0017,"dx":0.0017,"nx":28,"ny":28,"refTime":"2025-03-25T21:00:00:Z","depth":0,"parameterNumber":3,"parameterNumberName":"V-component_of_WINDS"},"data":[0,0,0,0,0,0,0,0,0,0,0,0,0,0,0,0,0,0,0,0,0,0,0,0,0,0,0,0,0,0,0,0,0,0,0,0,0,0,0,0,0,0,0,0,0,0,0,0,0,0,0,0,0,0,0,0,0,0,3.0973,3.0972,0,3.0935,3.0935,3.0934,3.0888,3.0887,3.0886,3.0886,3.0845,3.0845,3.0845,0,0,0,0,0,0,0,0,0,0,0,0,0,3.1003,3.1003,3.0973,3.0972,3.0972,3.0935,3.0935,3.0934,3.0888,3.0887,3.0886,3.0885,3.0846,3.0845,3.0845,0,0,0,0,0,0,0,0,0,0,0,0,0,3.098,3.1003,3.0973,3.0944,3.0941,3.0935,3.0935,3.0934,3.0888,3.0887,3.0886,3.0885,3.0846,3.0845,3.0845,3.0863,0,0,3.0843,3.0843,0,0,0,0,0,0,0,0,3.0982,3.0979,3.0949,3.0946,3.0943,3.0915,3.0931,3.091,3.0888,3.0908,3.0886,3.0884,3.0869,3.0867,3.0862,3.0861,3.0859,3.0843,3.0842,3.0842,3.0842,0,0,0,0,0,0,0,3.0983,3.098,3.0958,3.0948,3.0945,3.0933,3.0929,3.0927,3.0895,3.0906,3.0903,3.0899,3.0867,3.0863,3.0861,3.0859,3.0843,3.0842,3.0842,3.0842,3.0873,3.0874,0,0,0,0,0,0,3.0989,3.0982,3.0959,3.0957,3.096,3.0933,3.0928,3.0925,3.0895,3.089,3.09,3.0897,3.0864,3.0862,3.0859,3.088,3.0842,3.0842,3.0841,3.0872,3.0873,3.0874,0,0,0,0,0,0,3.099,3.0988,3.096,3.0968,3.0964,3.0934,3.0931,3.0925,3.092,3.0891,3.0885,3.0901,3.0863,3.086,3.0863,3.0878,3.0841,3.0841,3.087,3.0872,3.0874,3.0922,0,0,0,0,0,0,3.0991,3.0988,3.0995,3.0969,3.0964,3.0965,3.0932,3.0925,3.0919,3.0915,3.089,3.0885,3.0862,3.0864,3.0862,3.0877,3.084,3.0869,3.0871,3.0873,3.0919,3.0925,3.0931,0,0,0,0,0,3.0992,3.1009,3.0996,3.0993,3.0972,3.0966,3.0963,3.0937,3.0921,3.0928,3.0909,3.0886,3.0877,3.0865,3.0862,3.0877,3.0868,3.087,3.0873,3.0916,3.0924,3.093,0,0,0,0,0,0,3.1037,3.1005,3.099,3.0999,3.0986,3.0958,3.0966,3.0946,3.0937,3.0933,3.0901,3.0896,3.0903,3.089,3.0877,3.0894,3.0869,3.0871,3.0903,3.091,3.0915,3.0919,3.084,0,0,0,0,0,3.1048,3.1047,3.1019,3.1029,3.1024,3.0996,3.0993,3.0974,3.0959,3.0953,3.0934,3.092,3.0914,3.0911,3.0903,3.0916,3.0911,3.0925,3.0931,3.0936,3.0939,3.0946,3.0953,3.0883,3.0883,3.0883,0,0,3.1071,3.1053,3.1054,3.1038,3.1026,3.1025,3.0992,3.0992,3.0991,3.0952,3.0955,3.0941,3.0923,3.0931,3.0934,3.0921,3.0957,3.0939,3.0944,3.0944,3.095,3.0956,3.0962,3.0885,3.0884,3.0884,0,0,3.1112,3.1098,3.1107,3.1095,3.1077,3.1059,3.1061,3.1037,3.1026,3.1028,3.1,3.0998,3.0988,3.0977,3.097,3.1009,3.0987,3.1007,3.1038,3.1045,3.1051,3.1056,3.1071,3.1077,3.1009,3.1009,3.101,0,3.1143,3.1141,3.1113,3.1116,3.111,3.1076,3.1084,3.1074,3.1055,3.1051,3.1037,3.1025,3.101,3.1016,3.1026,3.1021,3.1023,3.101,3.1052,3.1057,3.1061,3.1075,3.1081,3.1012,3.1012,3.1012,3.1011,0,3.118,3.1179,3.1187,3.1171,3.1166,3.1171,3.1144,3.1143,3.1125,3.1108,3.1111,3.1092,3.1082,3.1081,3.1063,3.1086,3.1078,3.1058,3.1033,3.1071,3.1084,3.1089,3.1016,3.1015,3.1014,3.1014,0,0,3.1249,3.1217,3.1221,3.1214,3.1192,3.119,3.1194,3.1185,3.1184,3.1172,3.1175,3.1168,3.115,3.1143,3.1123,3.113,3.1163,3.1109,3.1108,3.1121,3.1189,3.1206,3.1212,3.1149,3.115,3.115,3.1191,0,3.1287,3.1293,3.1269,3.1281,3.128,3.1248,3.1252,3.1239,3.1224,3.1221,3.1204,3.12,3.1176,3.1171,3.1176,3.1158,3.1177,3.1155,3.1152,3.1153,3.116,3.1219,3.1236,3.1275,3.1196,3.1197,3.1197,0,3.1333,3.1324,3.1337,3.1316,3.1314,3.1318,3.1308,3.1306,3.1291,3.1279,3.1271,3.1249,3.1252,3.1227,3.1231,3.1216,3.1214,3.1205,3.1206,3.1206,3.1179,3.1222,3.1287,3.1294,3.1205,3.1204,3.1204,0,3.1384,3.1375,3.1382,3.1376,3.1351,3.1355,3.1345,3.1328,3.1325,3.1316,3.1313,3.1304,3.13,3.1293,3.127,3.1253,3.1277,3.1249,3.1269,3.1269,3.1276,3.1276,3.1343,3.1272,3.1272,3.1272,3.1272,0,3.143,3.144,3.1405,3.141,3.1419,3.1391,3.1402,3.1388,3.1374,3.1376,3.1346,3.1348,3.1316,3.1315,3.1296,3.1303,3.1301,3.1292,3.1287,3.1296,3.1297,3.1295,3.1292,3.1273,3.1273,3.1273,3.1272,0,3.149,3.1467,3.1472,3.1448,3.1443,3.1451,3.1431,3.1434,3.1417,3.1419,3.1418,3.1392,3.1389,3.1364,3.1355,3.1342,3.1357,3.1346,3.1363,3.136,3.1381,3.1381,3.145,3.1459,3.1381,3.1381,3.1382,0,3.1522,3.1528,3.1506,3.1505,3.1496,3.1495,3.1491,3.1464,3.1461,3.1445,3.1451,3.1446,3.144,3.1437,3.1417,3.141,3.14,3.1424,3.1398,3.1407,3.1402,3.1403,3.1404,3.1431,3.1432,3.1432,3.1433,0,3.1582,3.157,3.1566,3.1559,3.1556,3.1548,3.1539,3.154,3.151,3.1508,3.1505,3.1501,3.1493,3.1488,3.1479,3.1468,3.1446,3.1441,3.1446,3.1455,3.1466,3.1463,3.138,3.144,3.1439,3.1439,3.1439,3.1438,3.1629,3.1635,3.162,3.1617,3.1607,3.16,3.1602,3.1586,3.1583,3.1575,3.1558,3.1558,3.1544,3.1529,3.152,3.1519,3.1506,3.1512,3.1514,3.1517,3.1522,3.1465,3.1517,3.1517,3.1517,3.1516,3.1516,0,3.1689,3.1679,3.1676,3.1665,3.1663,3.1642,3.1632,3.1631,3.1632,3.162,3.1616,3.1613,3.1609,3.1589,3.1583,3.1587,3.1577,3.1586,3.1587,3.1585,3.1533,3.1531,3.1595,3.1595,3.1595,3.1595,3.1595,3.1595,3.1721,3.1729,3.1716,3.172,3.1708,3.1709,3.1705,3.1698,3.1689,3.1687,3.1684,3.1671,3.1657,3.1649,3.1645,3.1639,3.1639,3.1653,3.1644,3.1596,3.1588,3.1581,3.1579,3.1652,3.1652,3.1696,3.1697,3.1697]}]]